Flag for Albania Weather past 2 weeks in Durrës, Albania

Now
43 °F

Fog.


Feels Like: 41 °F
Forecast: 49 / 58 °F
Wind: 3 mph from South

Location: Tirana Airport

Current Time: Dec 18, 2014 at 10:03:13 PM

Latest Report: Dec 18, 2014 at 9:20 PM


Visibility: 3 mi

Pressure: 30.15 "Hg

Humidity: 93%

Dew point: 41 °F

Location of DurrësLocation

Historic Weather in Durrës — Graph

°F

Durrës temperature yesterday

Maximum temperature yesterday: 63 °F (at 11:50 AM)
Minimum temperature yesterday: 45 °F (at 6:50 AM)
Average temperature yesterday: 53 °F

Past Weeks' High & Low Weather Summary

 TemperatureHumidityPressure
High66 °F (Dec 4, 1:50 PM)100% (Dec 8, 12:20 AM)30.30 "Hg (Dec 8, 12:20 AM)
Low34 °F (Dec 10, 4:20 AM)31% (Dec 13, 11:50 AM)29.68 "Hg (Dec 9, 1:50 AM)
Average50 °F81%30.01 "Hg
* Reported Dec 3 8:20 PM — Dec 18 8:50 PM, Durrës, Weather by CustomWeather, © 2014

Note: Actual official high and low records may vary slightly from our data, if they occured in-between our weather recording intervals... More about our weather records

Advertising

Durrës weather history for previous 24 hours

 ConditionsComfort  
Time TempWeatherWind HumidityBarometerVisibility
8:50 PM
Dec 18
43 °FFog.3 mph93%30.12 "Hg1 mi
8:20 PM43 °FClear.3 mph87%30.12 "Hg4 mi
7:50 PM43 °FClear.No wind87%30.12 "Hg4 mi
7:20 PM45 °FClear.3 mph93%30.12 "Hg5 mi
6:50 PM46 °FClear.2 mph87%30.09 "Hg10 mi
6:20 PM46 °FClear.No wind87%30.09 "Hg10 mi
5:50 PM50 °FClear.2 mph82%30.09 "Hg10 mi
5:20 PM52 °FClear.5 mph77%30.09 "Hg10 mi
4:20 PM54 °FPassing clouds.3 mph72%30.07 "HgN/A
3:50 PM57 °FScattered clouds.5 mph67%30.07 "HgN/A
3:20 PM57 °FScattered clouds.5 mph67%30.07 "HgN/A
2:50 PM59 °FScattered clouds.6 mph59%30.04 "HgN/A
2:20 PM59 °FScattered clouds.6 mph59%30.04 "HgN/A
1:50 PM59 °FBroken clouds.6 mph59%30.04 "HgN/A
1:20 PM57 °FBroken clouds.5 mph63%30.04 "HgN/A
12:50 PM57 °FBroken clouds.5 mph59%30.04 "HgN/A
12:20 PM57 °FBroken clouds.2 mph63%30.04 "HgN/A
11:50 AM57 °FBroken clouds.2 mph63%30.04 "HgN/A
11:20 AM57 °FBroken clouds.2 mph63%30.04 "HgN/A
10:50 AM57 °FBroken clouds.1 mph63%30.07 "HgN/A
10:20 AM54 °FPartly sunny.2 mph67%30.07 "HgN/A
9:50 AM52 °FScattered clouds.3 mph77%30.04 "HgN/A
9:20 AM52 °FScattered clouds.2 mph72%30.04 "HgN/A
8:50 AM50 °FScattered clouds.2 mph76%30.04 "HgN/A
8:20 AM48 °FPartly sunny.3 mph82%30.04 "HgN/A
7:50 AM46 °FPartly sunny.2 mph87%30.01 "HgN/A
7:20 AM43 °FScattered clouds.6 mph87%30.01 "HgN/A
6:50 AM43 °FPassing clouds.3 mph93%30.01 "HgN/A
6:20 AM45 °FPartly cloudy.2 mph87%30.01 "HgN/A
5:50 AM45 °FPartly cloudy.1 mph87%29.98 "HgN/A
5:20 AM45 °FPartly cloudy.2 mph87%29.98 "HgN/A
4:20 AM45 °FPartly cloudy.3 mph87%29.95 "HgN/A
3:50 AM45 °FPassing clouds.2 mph87%29.98 "HgN/A
3:20 AM46 °FPartly cloudy.3 mph82%29.98 "HgN/A
2:50 AM43 °FThundershowers. Partly cloudy.6 mph93%29.98 "HgN/A
2:20 AM43 °FPassing clouds.7 mph93%29.98 "HgN/A
1:50 AM45 °FThundershowers. Partly cloudy.6 mph87%29.98 "HgN/A
1:20 AM45 °FPartly cloudy.6 mph87%29.98 "HgN/A
12:20 AM46 °FPartly cloudy.5 mph87%29.95 "HgN/A
11:20 PM
Dec 17
46 °FPassing clouds.6 mph93%29.95 "HgN/A
10:50 PM48 °FPassing clouds.2 mph87%29.95 "HgN/A
10:20 PM48 °FThundershowers. Partly cloudy.No wind87%29.95 "HgN/A
Weather by CustomWeather, © 2014

See weather overviewHow to use our weather pages